TimeEDT,TemperatureF,Dew PointF,Humidity,Sea Level PressureIn,VisibilityMPH,Wind Direction,Wind SpeedMPH,Gust SpeedMPH,PrecipitationIn,Events,Conditions,WindDirDegrees,DateUTC
12:58 AM,69.1,66.0,90,30.14,10.0,NNE,10.4,-,N/A,,Overcast,20,2013-09-17 04:58:00
1:58 AM,69.1,64.9,87,30.13,10.0,NNE,11.5,-,N/A,,Overcast,20,2013-09-17 05:58:00
2:58 AM,69.1,64.0,84,30.13,10.0,NNE,11.5,-,N/A,,Overcast,20,2013-09-17 06:58:00
3:58 AM,68.0,63.0,84,30.13,10.0,NNE,16.1,24.2,N/A,,Overcast,20,2013-09-17 07:58:00
4:58 AM,68.0,62.1,81,30.14,10.0,NNE,11.5,21.9,N/A,,Mostly Cloudy,20,2013-09-17 08:58:00
5:58 AM,66.9,62.1,84,30.17,10.0,NNE,9.2,-,N/A,,Clear,30,2013-09-17 09:58:00
6:58 AM,66.0,62.1,87,30.18,10.0,NNE,11.5,-,N/A,,Clear,20,2013-09-17 10:58:00
7:58 AM,68.0,62.1,81,30.20,10.0,North,10.4,-,N/A,,Scattered Clouds,10,2013-09-17 11:58:00
8:58 AM,71.1,63.0,75,30.22,10.0,NNE,15.0,19.6,N/A,,Partly Cloudy,20,2013-09-17 12:58:00
9:58 AM,72.0,62.1,71,30.24,10.0,NE,13.8,24.2,N/A,,Partly Cloudy,40,2013-09-17 13:58:00
10:58 AM,73.0,61.0,66,30.25,10.0,NNE,16.1,23.0,N/A,,Mostly Cloudy,30,2013-09-17 14:58:00
11:58 AM,75.0,63.0,66,30.25,10.0,NE,12.7,26.5,N/A,,Mostly Cloudy,40,2013-09-17 15:58:00
12:58 PM,73.9,61.0,64,30.24,10.0,NNE,16.1,24.2,N/A,,Mostly Cloudy,30,2013-09-17 16:58:00
1:58 PM,75.0,61.0,62,30.22,10.0,NE,12.7,24.2,N/A,,Scattered Clouds,50,2013-09-17 17:58:00
2:58 PM,73.0,61.0,66,30.22,10.0,NE,13.8,23.0,N/A,,Mostly Cloudy,40,2013-09-17 18:58:00
3:58 PM,73.0,60.1,64,30.21,10.0,NE,13.8,21.9,N/A,,Mostly Cloudy,50,2013-09-17 19:58:00
4:58 PM,73.0,57.0,57,30.22,10.0,NNE,16.1,24.2,N/A,,Partly Cloudy,30,2013-09-17 20:58:00
5:58 PM,71.1,57.0,61,30.22,10.0,NE,16.1,24.2,N/A,,Clear,40,2013-09-17 21:58:00
6:58 PM,68.0,57.0,68,30.22,10.0,NNE,9.2,20.7,N/A,,Partly Cloudy,30,2013-09-17 22:58:00
7:58 PM,66.0,55.0,68,30.23,10.0,NNE,11.5,20.7,N/A,,Partly Cloudy,30,2013-09-17 23:58:00
8:58 PM,64.0,53.1,67,30.24,10.0,NNE,11.5,-,N/A,,Clear,30,2013-09-18 00:58:00
9:58 PM,64.0,54.0,70,30.26,10.0,NNE,9.2,18.4,N/A,,Clear,30,2013-09-18 01:58:00
10:58 PM,63.0,54.0,72,30.25,10.0,NNE,10.4,18.4,N/A,,Partly Cloudy,20,2013-09-18 02:58:00
11:58 PM,63.0,55.0,75,30.25,10.0,NNE,11.5,-,N/A,,Clear,20,2013-09-18 03:58:00